Overview Statistics Trail Chart Weather Telemetry Raw packets
 

This is the latest recevied weather packets stored in our database for station/object KC0RKM-13. If no packets are shown the sender has not sent any weather packets the latest 10 day(s).

<< 16 17 18 19 20 21 22 >>
Time Temp. Humidity Pressure Rain* Wind** Luminosity Snow
1788321604 28.33° C 52% 1013.3 hPa 0 mm - - -
1788321004 28.89° C 50% 1013.5 hPa 0 mm - - -
1788320404 28.89° C 50% 1013.4 hPa 0 mm - - -
1788319804 28.89° C 50% 1013.2 hPa 0 mm - - -
1788319203 28.33° C 50% 1013.1 hPa 0 mm - - -
1788318604 28.33° C 51% 1013.2 hPa 0 mm - - -
1788318004 28.33° C 52% 1012.8 hPa 0 mm - - -
1788317404 28.33° C 52% 1012.9 hPa 0 mm - - -
1788316803 28.33° C 51% 1012.8 hPa 0 mm - - -
1788316203 28.89° C 51% 1012.8 hPa 0 mm - - -
1788315604 28.89° C 50% 1012.5 hPa 0 mm - - -
1788315003 29.44° C 49% 1012.5 hPa 0 mm - - -
1788314403 29.44° C 49% 1012.4 hPa 0 mm - - -
1788313803 30° C 48% 1012.6 hPa 0 mm - - -
1788313204 30° C 47% 1012.3 hPa 0 mm - - -
1788312603 30.56° C 47% 1012.1 hPa 0 mm - - -
1788312003 31.11° C 46% 1012 hPa 0 mm - - -
1788311403 31.67° C 44% 1012 hPa 0 mm - - -
1788310803 31.67° C 43% 1011.6 hPa 0 mm - - -
1788310204 32.22° C 43% 1011.9 hPa 0 mm - - -
1788309604 32.78° C 41% 1011.9 hPa 0 mm - - -
1788309004 33.33° C 39% 1011.9 hPa 0 mm - - -
1788308404 34.44° C 38% 1011.7 hPa 0 mm - - -
1788307804 35° C 36% 1011.8 hPa 0 mm - - -
1788307204 35° C 36% 1011.7 hPa 0 mm - - -

* Rain latest hour (hover to see other rain measurements)
** Current wind speed in m/s (hover to see current wind gust speed)